星链-37889(STARLINK-37889)
导读
STARLINK-37889(NORAD编号69536)是美国SpaceX公司星链低轨通信星座的成员,属于2026年上半年发射的组网卫星,为V2 Mini技术版本,运行于约530-550公里高度的近地轨道。作为星链全球组网的组成单元,它主要承担全球卫星互联网接入服务的容量补充任务,面向低/中纬度区域提供低延迟宽带支持。截至2026年6月该卫星处于正常在轨运行状态,当前星链星座在轨活跃卫星已超1.24万颗,该卫星是SpaceX规模化低轨星座部署、推进全球网络覆盖的单体节点之一。
Basic Information
目录编号:
69536
目录名称:
STARLINK-37889
国际标识:
2026-133AE
轨道中心:
EARTH
卫星名称:
星链-37889
卫星全名:
星链-37889(STARLINK-37889)
卫星状态:
在轨 (已飞行84 天)
发射日期:
2026-06-12 UTC
国别 :
美国
(US)
星等 :
--
Orbit Information
| 数据来源 | 国际轨道数据 |
| 星历时间: | 2026-09-04T11:22:48+0800 6小时前 查看轨道信息 |
| 半长轴: | 6840.859km |
| 偏心率: | 0.0001319 |
| 轨道倾角: | 53.159° |
| 近地点辐角 | 76.863° |
| 升交点赤经 | 306.119° |
| 平近点角 | 283.252° |
| 近地点: | 461.819km |
| 远地点: | 463.625km |
| 周期: | 93.848分钟 |
| 每日圈数: | 15.34394 |
Detailed Information
固有亮度:
5
最大亮度:
2.5
卫星平台:
Starlink V1.0
覆盖范围:
全球
运营商:
太空探索技术公司
运营商所在国:
美国
制造商(研发单位):
太空探索技术公司
制造商所在国:
美国
使用方式:
暂无
Satellite Introduction
Starlink 计划是 SpaceX 推出的全球卫星互联网项目,通过发射低轨道卫星,为全球尤其是偏远地区提供高速、低延迟的互联网服务。自 2019 年起,Starlink 已部署数千颗卫星,旨在缩小全球数字鸿沟,推动互联网普及。该项目还为军事、航空等行业提供通信支持,带来广泛经济效益。
2D Orbit Map
3D Orbit Map
Orbit Altitude Analysis Chart
Orbit Inclination Analysis Chart
Orbit Comprehensive Analysis Chart
View Comprehensive ChartConjunction Data List
| Event ID | Objects | TCA | Miss Dist (km) | Collision Risk Probability | Collision Risk Index (CRI) | Action |
|---|---|---|---|---|---|---|
| CDM_260905-042304-945606-953621 |
STARLINK-3124
(49456)
STARLINK-37889
(69536) | 2026-09-05T 04:23:57+0000 |
2.532 km
极远距离 | 1.533004E-6 低风险 | 0.39 | |
| CDM_260905-161505-016106-953621 |
STARLINK-3304
(50161)
STARLINK-37889
(69536) | 2026-09-05T 16:15:22+0000 |
2.817 km
极远距离 | 1.250094E-6 低风险 | 0.37 |

